Wind_Speed
35 33 33 33 33 32 31 31 30 29 29 29 29 29 29 28 28 27 27 26 25 25 24 24 23 22 21 20 19 18 16 16 15 14 14 13 13 12 11 11 11 10 10
37 37 36 36 36 35 34 34 33 33 32 31 31 31 31 31 30 30 29 29 28 27 26 26 26 25 24 23 22 20 20 18 17 17 16 16 15 15 14 13 13 13 13
40 40 39 38 38 38 38 37 36 35 35 35 34 33 33 33 33 32 32 32 31 30 29 28 28 27 26 26 25 23 22 21 20 19 18 18 17 17 17 16 16 16 15
42 42 42 40 40 40 40 39 39 38 38 37 36 36 35 35 36 35 35 34 34 33 32 31 31 30 29 28 28 26 26 24 23 22 21 20 20 19 19 19 18 18 18
44 44 44 43 43 42 42 41 41 41 40 40 40 39 38 38 38 38 38 37 37 36 36 35 33 32 32 31 30 29 28 27 26 25 23 23 22 21 21 21 20 20 20
46 45 45 45 45 44 44 43 43 43 42 42 42 42 41 41 40 40 40 39 39 38 38 37 36 35 34 33 32 32 31 29 28 27 26 25 24 24 23 22 22 22 22
47 47 47 47 46 46 46 45 45 45 44 44 44 44 43 42 41 41 41 41 40 40 39 39 38 37 37 35 34 33 33 32 30 30 29 28 27 27 26 25 25 25 24
48 49 49 48 48 48 48 48 48 47 46 46 46 46 45 44 43 43 42 42 42 41 41 41 41 40 39 38 37 36 35 35 34 32 31 30 29 29 28 27 27 27 26
49 50 50 50 50 51 51 51 51 50 48 47 47 47 47 46 45 44 44 44 44 44 43 43 43 42 41 40 39 38 37 36 36 35 34 33 32 31 30 30 29 28 28
50 51 52 52 51 52 51 51 51 51 50 49 48 49 49 48 48 47 46 46 46 46 45 45 45 44 43 42 41 40 39 38 37 37 36 35 34 33 32 32 31 31 30
51 52 53 52 53 53 52 51 52 51 51 51 50 51 51 50 50 49 49 49 49 48 47 47 47 46 46 45 44 43 42 41 40 40 39 38 36 36 35 34 34 33 32
51 52 53 53 53 53 53 52 52 52 51 52 51 51 51 51 50 50 50 50 50 50 50 49 49 49 48 47 46 46 44 43 42 42 42 41 39 38 38 37 36 35 34
52 53 53 53 53 53 52 52 52 52 52 52 52 51 52 52 52 52 52 51 51 52 52 51 50 50 50 50 49 48 48 46 45 44 44 43 42 41 40 40 39 38 37
52 52 52 53 53 52 52 52 52 51 52 52 52 52 52 52 53 53 54 53 53 53 53 53 52 52 52 52 52 51 51 49 48 47 46 45 45 44 44 42 42 41 40
52 52 53 53 54 54 53 53 54 53 53 54 54 54 53 53 54 54 55 55 54 54 54 54 54 53 54 53 53 53 52 52 51 50 48 48 47 47 46 45 45 44 44
51 52 51 51 52 53 54 56 56 56 55 55 55 55 55 54 54 54 55 55 55 55 55 55 56 56 55 55 54 54 54 54 53 52 50 50 49 49 49 48 48 47 46
50 50 51 52 52 54 55 57 57 57 57 57 56 56 55 55 55 55 56 56 56 56 56 55 56 57 57 57 56 56 55 55 54 53 52 51 52 51 50 50 49 48 48
50 50 51 51 52 53 55 56 57 57 57 57 56 57 56 55 55 56 57 57 57 56 56 56 56 57 58 58 59 58 58 58 57 55 54 53 52 52 51 51 49 49 48
51 51 51 52 53 53 53 54 57 57 57 57 57 57 57 56 56 56 57 58 58 57 57 57 57 57 59 60 60 60 60 59 59 58 55 54 53 51 51 51 51 50 49
50 51 51 51 53 54 54 55 55 56 57 57 57 57 57 57 57 56 57 58 58 58 57 58 57 57 58 59 60 61 61 61 60 59 57 55 54 52 52 52 52 52 51
50 51 52 52 52 54 55 55 56 56 55 55 56 56 56 56 56 56 57 58 58 58 58 59 58 57 57 57 58 59 61 60 60 59 58 56 55 54 53 52 53 54 53
50 51 51 52 52 53 54 55 55 56 56 56 55 55 56 56 56 56 56 57 58 59 58 59 58 57 56 57 58 58 58 58 57 57 57 56 56 55 53 53 54 54 54
49 50 51 51 52 53 53 54 55 55 56 56 56 55 55 55 55 56 55 55 56 57 58 59 58 57 56 56 56 56 57 57 56 56 56 56 56 55 53 53 54 54 54
48 48 49 49 50 50 51 52 53 54 54 55 56 55 54 54 55 55 56 55 56 56 56 57 57 56 55 54 55 56 57 58 57 56 57 57 56 56 55 54 55 55 55
46 47 47 47 48 48 49 50 52 53 53 53 54 54 54 54 55 55 56 55 55 55 55 55 54 54 55 55 56 57 58 58 58 57 57 57 57 56 56 56 56 57 58
45 45 45 45 46 46 48 48 50 51 52 53 53 53 53 53 53 54 56 56 55 54 54 54 53 53 54 55 56 57 58 58 58 58 58 58 58 58 57 57 58 58 59
Wind_Direction
256 256 256 256 256 257 258 258 258 257 257 258 258 257 257 256 256 255 252 250 250 249 250 251 252 253 254 254 256 258 260 260 259 258 258 258 259 260 259 261 264 267 269
257 256 257 256 256 257 258 259 259 258 258 258 258 258 257 257 256 255 253 251 250 249 250 251 251 253 253 253 254 257 258 260 258 257 257 258 260 261 260 261 264 266 268
257 258 258 256 256 257 257 258 259 259 258 258 258 258 258 257 256 255 253 252 251 250 250 251 251 253 254 253 253 255 257 258 257 257 257 258 259 260 261 262 264 266 268
257 259 258 257 257 257 257 257 257 258 258 258 258 258 258 257 256 255 253 252 252 251 251 251 251 252 252 253 253 254 255 257 257 256 257 257 259 260 261 262 263 265 267
258 258 258 258 257 256 256 256 256 257 258 258 257 257 257 257 256 254 253 253 252 252 252 251 251 251 251 252 253 253 254 256 255 255 256 257 258 260 261 262 263 264 266
258 258 258 259 258 256 256 257 257 257 258 258 257 257 258 256 256 255 254 253 252 252 252 251 251 251 251 251 252 253 253 255 255 254 254 256 258 259 261 262 263 263 265
258 258 258 259 259 258 257 257 258 258 258 258 257 257 257 257 256 255 253 252 251 251 251 250 250 251 250 250 251 252 253 254 254 254 254 256 257 259 260 262 263 263 264
258 258 258 260 259 259 259 259 259 259 259 258 257 256 256 256 255 254 253 252 251 251 251 250 250 251 250 250 250 251 252 253 253 254 254 255 257 258 259 261 263 264 264
258 258 258 259 260 260 261 260 259 259 259 258 258 257 256 256 255 254 253 252 251 251 252 251 251 250 250 250 249 250 251 252 253 253 254 254 256 258 259 261 262 264 264
259 259 259 259 260 261 261 261 260 259 258 258 258 258 257 256 255 254 253 252 252 251 251 252 251 250 250 249 249 249 249 250 252 254 254 254 255 258 260 262 262 263 264
260 260 259 259 259 260 260 259 259 259 258 258 258 258 257 256 256 254 252 252 251 251 251 251 251 250 250 249 249 249 249 249 251 253 254 254 255 257 259 261 261 262 263
260 259 259 259 259 258 259 258 258 258 258 258 258 258 257 256 256 255 253 252 251 251 251 251 252 251 250 250 249 248 249 249 251 253 254 254 255 256 258 259 260 261 262
262 260 259 258 258 258 258 257 257 257 258 258 258 258 257 256 256 255 254 253 252 251 251 251 252 252 251 250 249 248 249 249 251 251 253 254 254 255 257 258 259 260 261
264 261 258 258 257 257 257 257 257 257 258 258 258 258 258 257 256 255 254 254 253 252 252 252 252 252 252 251 250 249 249 250 251 252 253 254 253 254 255 257 258 260 261
263 262 259 257 256 256 256 256 256 257 259 260 259 259 258 258 257 256 255 255 254 253 252 251 251 252 252 251 250 249 249 250 251 253 253 254 254 255 256 258 259 260 261
263 260 259 258 256 255 256 256 256 257 259 259 259 258 258 258 258 258 256 256 255 254 253 252 252 252 251 250 250 249 249 250 251 253 253 253 255 256 256 258 258 260 261
263 260 260 260 258 257 257 257 257 258 258 258 258 257 257 258 258 258 257 257 256 256 255 253 253 253 252 250 249 249 249 250 251 253 253 254 255 255 256 257 258 259 260
262 261 260 261 261 261 260 258 258 258 258 257 256 256 257 257 257 257 257 257 257 257 256 254 253 253 253 252 250 249 249 250 251 252 253 253 253 254 255 256 256 257 259
263 263 262 263 263 263 263 261 260 258 257 257 257 257 257 257 257 257 257 257 257 257 257 255 254 254 253 252 251 250 249 250 251 251 252 252 252 253 255 255 255 256 257
264 264 264 265 265 264 263 263 261 259 257 256 256 256 256 257 258 257 257 257 257 257 257 256 255 255 254 252 251 250 249 249 249 250 250 251 250 251 253 254 255 256 257
265 265 265 266 267 266 265 263 261 259 257 257 257 256 256 257 257 257 257 257 256 256 256 255 255 254 253 252 251 250 249 249 248 248 249 249 250 251 252 254 256 257 257
267 267 267 267 268 267 266 265 263 260 258 257 257 257 256 256 256 257 257 256 256 256 256 255 254 253 253 252 251 249 248 247 247 246 247 248 250 251 253 256 256 257 258
268 268 268 268 269 268 266 265 263 261 259 257 257 256 256 256 256 256 256 256 256 255 255 254 253 253 253 252 250 248 247 246 246 246 246 247 249 252 253 255 256 257 258
269 269 270 270 269 268 266 264 263 261 259 258 257 256 256 255 256 256 256 256 256 256 255 254 253 252 250 249 248 247 247 246 246 247 247 248 249 251 252 254 255 256 258
270 270 270 270 269 268 267 265 263 262 259 258 257 257 257 256 256 256 257 257 256 256 255 253 252 251 249 248 247 247 247 247 247 247 248 249 250 252 252 253 254 257 259
271 271 271 271 270 269 267 266 265 263 260 259 258 258 257 257 256 256 257 257 256 255 254 253 252 250 250 249 249 248 247 248 249 248 249 250 251 252 253 254 255 258 260
Height
5790 5792 5794 5795 5796 5797 5799 5800 5801 5803 5804 5805 5807 5808 5810 5811 5812 5814 5815 5817 5818 5819 5821 5823 5824 5825 5827 5828 5829 5830 5830 5831 5832 5832 5833 5834 5834 5834 5835 5835 5836 5836 5836
5782 5783 5785 5787 5788 5789 5791 5792 5794 5795 5797 5798 5799 5801 5802 5804 5805 5807 5808 5810 5812 5813 5815 5816 5818 5819 5821 5823 5824 5825 5826 5827 5828 5829 5829 5830 5830 5831 5832 5832 5832 5833 5833
5772 5774 5775 5777 5779 5780 5782 5784 5785 5786 5788 5790 5791 5793 5794 5796 5797 5799 5801 5802 5804 5806 5808 5810 5811 5813 5815 5817 5818 5820 5821 5821 5823 5824 5825 5826 5827 5827 5828 5828 5829 5829 5829
5762 5764 5765 5767 5769 5771 5772 5774 5776 5777 5779 5780 5782 5784 5785 5787 5788 5790 5792 5794 5796 5798 5800 5802 5804 5806 5808 5810 5812 5813 5815 5816 5817 5819 5820 5821 5822 5823 5823 5824 5825 5825 5825
5751 5753 5755 5757 5758 5760 5762 5764 5765 5767 5769 5770 5772 5774 5776 5777 5779 5780 5782 5784 5787 5789 5791 5794 5796 5798 5800 5802 5804 5806 5808 5810 5812 5813 5814 5816 5817 5817 5818 5819 5820 5820 5821
5739 5741 5743 5745 5747 5749 5751 5752 5754 5756 5758 5760 5761 5764 5765 5767 5768 5770 5772 5774 5777 5779 5782 5784 5787 5789 5792 5794 5796 5799 5801 5803 5805 5807 5808 5810 5811 5812 5813 5813 5814 5815 5815
5727 5729 5731 5733 5735 5737 5739 5741 5743 5744 5746 5748 5750 5752 5754 5755 5757 5759 5762 5764 5766 5769 5771 5774 5777 5780 5782 5785 5788 5790 5793 5795 5797 5799 5801 5803 5804 5805 5806 5807 5808 5809 5809
5714 5716 5719 5721 5723 5725 5727 5729 5730 5732 5734 5736 5737 5739 5742 5745 5746 5748 5750 5753 5756 5758 5761 5763 5766 5769 5772 5776 5779 5781 5784 5787 5789 5791 5794 5795 5797 5798 5799 5801 5801 5802 5803
5701 5703 5706 5708 5710 5712 5714 5716 5717 5719 5721 5723 5724 5726 5729 5732 5734 5737 5739 5742 5744 5747 5750 5753 5756 5759 5762 5765 5768 5772 5774 5777 5780 5783 5785 5787 5789 5790 5792 5793 5794 5795 5796
5688 5690 5692 5694 5696 5698 5700 5702 5703 5705 5708 5710 5712 5713 5716 5718 5721 5725 5728 5730 5732 5736 5739 5741 5744 5747 5751 5754 5758 5761 5764 5767 5770 5773 5775 5778 5780 5782 5783 5785 5786 5787 5788
5674 5676 5678 5680 5682 5683 5685 5688 5690 5692 5694 5696 5698 5700 5702 5704 5707 5711 5715 5718 5720 5723 5726 5729 5733 5736 5739 5743 5746 5750 5753 5756 5760 5763 5765 5768 5770 5772 5774 5776 5777 5778 5779
5660 5661 5663 5665 5667 5669 5671 5673 5676 5678 5679 5682 5684 5686 5688 5691 5694 5696 5700 5704 5707 5711 5714 5717 5720 5724 5727 5731 5734 5738 5742 5745 5748 5751 5754 5757 5760 5762 5764 5766 5768 5769 5770
5645 5646 5648 5650 5652 5654 5656 5659 5661 5664 5666 5668 5670 5672 5674 5677 5679 5682 5685 5689 5693 5697 5700 5704 5708 5711 5715 5718 5722 5726 5729 5733 5736 5740 5742 5745 5749 5751 5754 5756 5758 5759 5761
5630 5631 5633 5635 5637 5640 5642 5644 5647 5650 5652 5654 5656 5658 5660 5663 5665 5668 5671 5674 5678 5683 5686 5691 5694 5697 5701 5705 5709 5713 5717 5720 5724 5727 5731 5734 5737 5740 5742 5745 5747 5749 5750
5616 5617 5618 5620 5623 5625 5628 5630 5633 5635 5638 5640 5642 5644 5646 5649 5651 5653 5656 5659 5663 5667 5673 5676 5679 5683 5686 5690 5695 5699 5703 5707 5711 5714 5718 5721 5724 5727 5730 5732 5735 5737 5739
5601 5602 5603 5605 5608 5610 5613 5615 5618 5620 5622 5625 5627 5629 5631 5634 5636 5638 5641 5644 5647 5651 5657 5662 5664 5668 5671 5675 5680 5684 5689 5693 5697 5701 5705 5708 5711 5714 5717 5720 5722 5724 5726
5587 5588 5590 5591 5593 5595 5597 5599 5601 5604 5606 5609 5611 5614 5617 5619 5621 5624 5626 5629 5632 5635 5640 5646 5649 5652 5656 5660 5664 5669 5674 5678 5683 5687 5691 5694 5697 5700 5703 5706 5709 5711 5713
5573 5574 5576 5577 5578 5579 5581 5583 5585 5587 5590 5592 5595 5598 5601 5603 5606 5609 5611 5614 5617 5620 5624 5629 5633 5636 5640 5644 5648 5653 5658 5663 5668 5672 5676 5680 5683 5686 5689 5692 5695 5697 5700
5559 5560 5561 5562 5563 5564 5565 5566 5568 5570 5573 5576 5579 5582 5585 5588 5590 5593 5595 5598 5601 5604 5608 5612 5617 5620 5624 5628 5632 5637 5642 5647 5652 5657 5661 5665 5669 5672 5675 5678 5681 5684 5686
5544 5545 5546 5547 5548 5548 5549 5550 5551 5553 5556 5559 5563 5566 5569 5572 5575 5577 5579 5582 5585 5588 5591 5595 5599 5603 5607 5611 5614 5620 5626 5631 5637 5641 5645 5650 5654 5657 5661 5664 5667 5670 5672
5529 5530 5531 5532 5532 5533 5534 5534 5536 5537 5540 5543 5546 5550 5553 5556 5559 5561 5564 5566 5569 5572 5575 5578 5582 5586 5591 5594 5599 5604 5609 5615 5620 5625 5630 5635 5640 5643 5646 5649 5652 5654 5657
5515 5516 5517 5517 5518 5518 5518 5519 5520 5522 5524 5527 5530 5534 5537 5540 5543 5545 5547 5550 5553 5555 5559 5562 5566 5570 5575 5579 5583 5587 5592 5598 5605 5612 5614 5620 5624 5628 5631 5634 5637 5640 5642
5501 5502 5502 5503 5503 5503 5503 5503 5504 5506 5508 5511 5514 5517 5520 5524 5526 5529 5531 5534 5537 5539 5542 5546 5550 5554 5559 5563 5567 5573 5577 5582 5589 5594 5598 5604 5609 5613 5617 5619 5622 5625 5627
5488 5488 5488 5488 5488 5488 5488 5488 5489 5490 5492 5495 5498 5501 5504 5508 5510 5513 5515 5518 5521 5524 5527 5530 5534 5539 5542 5546 5550 5556 5561 5567 5573 5579 5583 5588 5593 5598 5601 5604 5607 5609 5611
5475 5474 5474 5474 5474 5474 5473 5473 5473 5475 5478 5480 5483 5485 5488 5492 5495 5497 5499 5503 5506 5509 5511 5514 5518 5522 5526 5531 5535 5540 5545 5551 5558 5564 5568 5572 5577 5581 5585 5589 5591 5593 5595
5462 5461 5461 5460 5460 5460 5459 5459 5459 5460 5463 5466 5468 5471 5474 5476 5478 5480 5483 5486 5490 5493 5496 5499 5503 5507 5511 5515 5520 5525 5530 5535 5541 5547 5553 5556 5560 5563 5568 5573 5575 5577 5579